Location: Asheville, NC
(35.6000°N, 82.5500°W)
Time: 14:07:50
(UTC-04:00)

Oscar 11 - Pass Details

Date: 15 March 2018
Orbit: 613 x 627 km, 97.6° (Epoch: 18 June)

Event Time Altitude Azimuth Distance (km) Brightness Sun altitude
Exits shadow 20:40:35 14° 136° (SE) 1,722 8.9 -13.6°
Maximum altitude 20:43:52 37° 73° (ENE) 950 7.6 -14.2°
Drops below altitude 10° 20:47:50 10° 6° (N) 1,974 9.7 -15.0°
Sets 20:50:08 0° 358° (N) 2,884 10.6 -15.5°
